| time (UTC) | temp C | wind direction | speed KPH | gust KPH | rain 1hr cm | rain 24hr cm | rain mn cm | humidity % | barometer mb |
| 20260504171535 | 20 | 360 | 3.2 | 12.9 | 0.00 | 0.00 | 0.00 | 64 | 1012.1 |
| 20260504120105 | 8 | 360 | 1.6 | 6.4 | 0.00 | 0.00 | 0.00 | 90 | 1014.9 |
| 20260504081529 | 6 | 360 | 0.0 | 0.0 | 0.00 | 0.00 | 0.00 | 85 | 1015.3 |
| 20260504050001 | 9 | 360 | 0.0 | 0.0 | 0.00 | 0.00 | 0.00 | 81 | 1016.6 |
| 20260504044605 | 10 | 360 | 0.0 | 3.2 | 0.00 | 0.00 | 0.00 | 80 | 1016.9 |
| 20260504043059 | 10 | 360 | 0.0 | 0.0 | 0.00 | 0.00 | 0.00 | 79 | 1017.0 |
| 20260504041557 | 10 | 360 | 0.0 | 1.6 | 0.00 | 0.00 | 0.00 | 78 | 1017.2 |
| 20260504040107 | 10 | 360 | 0.0 | 0.0 | 0.00 | 0.00 | 0.00 | 78 | 1017.3 |
| 20260504034620 | 10 | 360 | 0.0 | 1.6 | 0.00 | 0.00 | 0.00 | 76 | 1017.0 |
| 20260504033055 | 10 | 360 | 0.0 | 0.0 | 0.00 | 0.00 | 0.00 | 74 | 1017.0 |
| 20260504031554 | 10 | 360 | 0.0 | 1.6 | 0.00 | 0.00 | 0.00 | 73 | 1016.9 |
| 20260504030118 | 10 | 360 | 0.0 | 1.6 | 0.00 | 0.00 | 0.00 | 73 | 1017.1 |
| 20260504024555 | 10 | 360 | 0.0 | 1.6 | 0.00 | 0.00 | 0.00 | 72 | 1017.1 |
| 20260504023050 | 10 | 360 | 0.0 | 0.0 | 0.00 | 0.00 | 0.00 | 71 | 1016.9 |
| 20260504021552 | 11 | 360 | 0.0 | 0.0 | 0.00 | 0.00 | 0.00 | 69 | 1016.9 |
| 20260504020052 | 11 | 360 | 0.0 | 0.0 | 0.00 | 0.00 | 0.00 | 67 | 1016.6 |
| 20260504014550 | 11 | 360 | 0.0 | 0.0 | 0.00 | 0.00 | 0.00 | 65 | 1016.3 |
| 20260504013052 | 11 | 360 | 0.0 | 0.0 | 0.00 | 0.00 | 0.00 | 64 | 1016.3 |
| 20260504011546 | 12 | 360 | 0.0 | 0.0 | 0.00 | 0.00 | 0.00 | 62 | 1016.3 |
| 20260504010045 | 12 | 360 | 0.0 | 0.0 | 0.00 | 0.00 | 0.00 | 60 | 1016.5 |
| 20260504004545 | 13 | 360 | 0.0 | 0.0 | 0.00 | 0.00 | 0.00 | 57 | 1016.5 |
| 20260504003044 | 13 | 360 | 0.0 | 0.0 | 0.00 | 0.00 | 0.00 | 54 | 1016.4 |
| 20260504001554 | 14 | 227 | 0.0 | 1.6 | 0.00 | 0.00 | 0.00 | 52 | 1016.4 |
| 20260504000040 | 15 | 227 | 0.0 | 1.6 | 0.00 | 0.00 | 0.00 | 47 | 1016.4 |
| 20260503234541 | 15 | 360 | 0.0 | 1.6 | 0.00 | 0.00 | 0.00 | 44 | 1016.2 |
| 20260503233009 | 16 | 360 | 0.0 | 4.8 | 0.00 | 0.00 | 0.00 | 43 | 1016.2 |
| 20260503231508 | 16 | 219 | 0.0 | 6.4 | 0.00 | 0.00 | 0.00 | 40 | 1016.7 |
| 20260503230003 | 16 | 198 | 0.0 | 8.0 | 0.00 | 0.00 | 0.00 | 41 | 1016.8 |
| 20260503224502 | 16 | 319 | 1.6 | 9.7 | 0.00 | 0.00 | 0.00 | 39 | 1016.7 |
| 20260503223004 | 16 | 22 | 0.0 | 14.5 | 0.00 | 0.00 | 0.00 | 36 | 1017.1 |
| 20260503221501 | 16 | 62 | 1.6 | 9.7 | 0.00 | 0.00 | 0.00 | 36 | 1017.0 |
| 20260503220057 | 17 | 271 | 1.6 | 6.4 | 0.00 | 0.00 | 0.00 | 37 | 1017.2 |
| 20260503214602 | 17 | 292 | 3.2 | 16.1 | 0.00 | 0.00 | 0.00 | 33 | 1017.2 |
| 20260503213055 | 17 | 360 | 4.8 | 12.9 | 0.00 | 0.00 | 0.00 | 34 | 1017.2 |
| 20260503211556 | 17 | 360 | 3.2 | 12.9 | 0.00 | 0.00 | 0.00 | 33 | 1017.3 |
| 20260503210050 | 17 | 360 | 1.6 | 14.5 | 0.00 | 0.00 | 0.00 | 34 | 1017.4 |
| 20260503204556 | 18 | 269 | 6.4 | 16.1 | 0.00 | 0.00 | 0.00 | 33 | 1017.6 |
| 20260503203051 | 17 | 88 | 1.6 | 16.1 | 0.00 | 0.00 | 0.00 | 34 | 1017.8 |
| 20260503201546 | 17 | 304 | 6.4 | 12.9 | 0.00 | 0.00 | 0.00 | 35 | 1018.1 |
| 20260503200014 | 18 | 305 | 4.8 | 11.3 | 0.00 | 0.00 | 0.00 | 33 | 1018.3 |
| 20260503194512 | 17 | 153 | 0.0 | 9.7 | 0.00 | 0.00 | 0.00 | 40 | 1018.6 |
| 20260503193005 | 17 | 82 | 3.2 | 12.9 | 0.00 | 0.00 | 0.00 | 36 | 1018.8 |
| 20260503191504 | 17 | 312 | 4.8 | 20.9 | 0.00 | 0.00 | 0.00 | 35 | 1019.1 |
| 20260503190001 | 17 | 258 | 0.0 | 6.4 | 0.00 | 0.00 | 0.00 | 41 | 1019.3 |
| 20260503184602 | 16 | 333 | 4.8 | 14.5 | 0.00 | 0.00 | 0.00 | 34 | 1019.7 |
| 20260503183102 | 16 | 281 | 1.6 | 11.3 | 0.00 | 0.00 | 0.00 | 35 | 1019.8 |
| 20260503181551 | 16 | 237 | 1.6 | 14.5 | 0.00 | 0.00 | 0.00 | 41 | 1020.2 |
| 20260503180056 | 16 | 360 | 3.2 | 16.1 | 0.00 | 0.00 | 0.00 | 37 | 1020.5 |
| 20260503174551 | 15 | 360 | 4.8 | 17.7 | 0.00 | 0.00 | 0.00 | 39 | 1020.8 |
| 20260503173107 | 16 | 175 | 1.6 | 11.3 | 0.00 | 0.00 | 0.00 | 37 | 1020.9 |